• In Deutschland
  • Länderverzeichnis
  • Für 7 Tage
  • Wassertemperatur
  • Satellitenkarten
  • Wetterkarte
  • Widgets
  • user-avatar
    Anmelden

    Stündliche Wetter Krutcovka

    Heute, 21 September, Freitag

    Zeit Temperatur Niederschläge Wind Luftdruck Luftfeuchtigkeit
    00:00 +15°C° 0 mm 1 m/S 746 mmHg 87%
    01:00 +15°C° 0 mm 1 m/S 746 mmHg 87%
    02:00 +15°C° 0 mm 1 m/S 746 mmHg 88%
    03:00 +15°C° 0 mm 1 m/S 746 mmHg 88%
    04:00 +15°C° 0 mm 1 m/S 746 mmHg 89%
    05:00 +14°C° 0 mm 1 m/S 746 mmHg 90%
    06:00 +16°C° 0 mm 1 m/S 747 mmHg 86%
    07:00 +18°C° 0 mm 1 m/S 747 mmHg 83%
    08:00 +20°C° 0 mm 1 m/S 747 mmHg 79%
    09:00 +22°C° 0 mm 1 m/S 747 mmHg 75%
    10:00 +23°C° 0 mm 2 m/S 747 mmHg 70%
    11:00 +25°C° 0 mm 2 m/S 747 mmHg 66%
    12:00 +26°C° 0 mm 2 m/S 747 mmHg 63%
    13:00 +26°C° 0 mm 2 m/S 747 mmHg 61%
    14:00 +27°C° 0 mm 2 m/S 746 mmHg 59%
    15:00 +26°C° 0 mm 2 m/S 746 mmHg 64%
    16:00 +25°C° 0 mm 2 m/S 746 mmHg 69%
    17:00 +24°C° 0 mm 2 m/S 746 mmHg 73%
    18:00 +21°C° 0 mm 2 m/S 745 mmHg 78%
    19:00 +20°C° 0 mm 2 m/S 745 mmHg 82%
    20:00 +18°C° 0 mm 2 m/S 745 mmHg 86%
    21:00 +18°C° 0 mm 2 m/S 745 mmHg 86%
    22:00 +17°C° 0 mm 2 m/S 745 mmHg 87%
    23:00 +17°C° 0 mm 2 m/S 745 mmHg 88%

    Morgen, 22 September, Samstag

    Zeit Temperatur Niederschläge Wind Luftdruck Luftfeuchtigkeit
    00:00 +16°C° 0 mm 3 m/S 745 mmHg 88%
    01:00 +16°C° 0 mm 3 m/S 745 mmHg 87%
    02:00 +16°C° 0 mm 3 m/S 745 mmHg 87%
    03:00 +16°C° 0 mm 3 m/S 744 mmHg 86%
    04:00 +16°C° 0 mm 3 m/S 744 mmHg 85%
    05:00 +14°C° 0 mm 3 m/S 744 mmHg 84%
    06:00 +17°C° 0 mm 4 m/S 743 mmHg 80%
    07:00 +18°C° 0 mm 4 m/S 743 mmHg 75%
    08:00 +19°C° 0 mm 5 m/S 743 mmHg 71%
    09:00 +21°C° 0 mm 5 m/S 743 mmHg 66%
    10:00 +22°C° 0 mm 6 m/S 742 mmHg 60%
    11:00 +24°C° 0 mm 6 m/S 742 mmHg 54%
    12:00 +24°C° 0 mm 6 m/S 741 mmHg 52%
    13:00 +26°C° 0 mm 6 m/S 741 mmHg 50%
    14:00 +26°C° 0 mm 6 m/S 740 mmHg 48%
    15:00 +25°C° 0 mm 5 m/S 740 mmHg 52%
    16:00 +23°C° 0 mm 5 m/S 740 mmHg 56%
    17:00 +22°C° 0 mm 4 m/S 740 mmHg 60%
    18:00 +20°C° 0.2 mm 4 m/S 740 mmHg 66%
    19:00 +16°C° 0.2 mm 5 m/S 740 mmHg 73%
    20:00 +14°C° 0.2 mm 5 m/S 740 mmHg 79%
    21:00 +13°C° 0.3 mm 5 m/S 740 mmHg 82%
    22:00 +12°C° 0.3 mm 5 m/S 740 mmHg 85%
    23:00 +9°C° 0.3 mm 5 m/S 740 mmHg 88%

    übermorgen, 23 September, Sonntag

    Zeit Temperatur Niederschläge Wind Luftdruck Luftfeuchtigkeit
    00:00 +9°C° 0.8 mm 5 m/S 740 mmHg 89%
    01:00 +8°C° 0.8 mm 5 m/S 740 mmHg 90%
    02:00 +8°C° 0.8 mm 5 m/S 740 mmHg 91%
    03:00 +7°C° 1.7 mm 4 m/S 740 mmHg 92%
    04:00 +7°C° 1.7 mm 4 m/S 740 mmHg 93%
    05:00 +8°C° 1.7 mm 3 m/S 740 mmHg 94%
    06:00 +9°C° 0.9 mm 3 m/S 740 mmHg 94%
    07:00 +9°C° 0.9 mm 3 m/S 740 mmHg 93%
    08:00 +9°C° 0.9 mm 3 m/S 740 mmHg 93%
    09:00 +10°C° 0.4 mm 4 m/S 740 mmHg 89%
    10:00 +11°C° 0.4 mm 4 m/S 740 mmHg 85%
    11:00 +12°C° 0.4 mm 4 m/S 740 mmHg 81%
    12:00 +12°C° 0.4 mm 4 m/S 740 mmHg 77%
    13:00 +13°C° 0.4 mm 4 m/S 740 mmHg 73%
    14:00 +14°C° 0.4 mm 4 m/S 740 mmHg 69%
    15:00 +13°C° 0.2 mm 4 m/S 740 mmHg 72%
    16:00 +12°C° 0.2 mm 3 m/S 740 mmHg 76%
    17:00 +12°C° 0.2 mm 3 m/S 740 mmHg 79%
    18:00 +11°C° 0.1 mm 3 m/S 740 mmHg 82%
    19:00 +10°C° 0.1 mm 3 m/S 740 mmHg 85%
    20:00 +9°C° 0.1 mm 3 m/S 740 mmHg 89%
    21:00 +8°C° 0 mm 3 m/S 740 mmHg 90%
    22:00 +8°C° 0 mm 3 m/S 741 mmHg 91%
    23:00 +7°C° 0 mm 3 m/S 741 mmHg 92%

    24 September, Montag

    Zeit Temperatur Niederschläge Wind Luftdruck Luftfeuchtigkeit
    00:00 +7°C° 0 mm 3 m/S 741 mmHg 92%
    01:00 +7°C° 0 mm 3 m/S 741 mmHg 93%
    02:00 +7°C° 0 mm 3 m/S 741 mmHg 94%
    03:00 +5°C° 0 mm 3 m/S 741 mmHg 95%
    04:00 +5°C° 0 mm 3 m/S 741 mmHg 95%
    05:00 +6°C° 0 mm 2 m/S 741 mmHg 96%
    06:00 +7°C° 0 mm 3 m/S 741 mmHg 93%
    07:00 +7°C° 0 mm 3 m/S 740 mmHg 90%
    08:00 +8°C° 0 mm 3 m/S 740 mmHg 87%
    09:00 +10°C° 0 mm 3 m/S 740 mmHg 81%
    10:00 +11°C° 0 mm 4 m/S 740 mmHg 74%
    11:00 +12°C° 0 mm 4 m/S 739 mmHg 68%
    12:00 +12°C° 0.1 mm 5 m/S 739 mmHg 67%
    13:00 +13°C° 0.1 mm 6 m/S 738 mmHg 67%
    14:00 +13°C° 0.1 mm 6 m/S 737 mmHg 66%
    15:00 +10°C° 1.5 mm 6 m/S 736 mmHg 74%
    16:00 +9°C° 1.5 mm 6 m/S 735 mmHg 81%
    17:00 +8°C° 1.5 mm 6 m/S 734 mmHg 89%
    18:00 +8°C° 1.7 mm 7 m/S 732 mmHg 90%
    19:00 +8°C° 1.7 mm 7 m/S 731 mmHg 91%
    20:00 +8°C° 1.7 mm 7 m/S 730 mmHg 91%
    21:00 +9°C° 1.6 mm 7 m/S 728 mmHg 92%
    22:00 +10°C° 1.6 mm 8 m/S 727 mmHg 92%
    23:00 +11°C° 1.6 mm 8 m/S 725 mmHg 92%

    25 September, Dienstag

    Zeit Temperatur Niederschläge Wind Luftdruck Luftfeuchtigkeit
    00:00 +10°C° 0.5 mm 7 m/S 725 mmHg 91%
    01:00 +10°C° 0.5 mm 7 m/S 724 mmHg 90%
    02:00 +9°C° 0.5 mm 6 m/S 723 mmHg 89%
    03:00 +8°C° 0.2 mm 6 m/S 723 mmHg 89%
    04:00 +8°C° 0.2 mm 6 m/S 723 mmHg 90%
    05:00 +8°C° 0.2 mm 6 m/S 723 mmHg 90%
    06:00 +7°C° 0.5 mm 5 m/S 722 mmHg 91%
    07:00 +7°C° 0.5 mm 5 m/S 722 mmHg 91%
    08:00 +7°C° 0.5 mm 5 m/S 722 mmHg 92%
    09:00 +7°C° 0.7 mm 4 m/S 723 mmHg 92%
    10:00 +8°C° 0.7 mm 4 m/S 723 mmHg 92%
    11:00 +9°C° 0.7 mm 3 m/S 723 mmHg 92%
    12:00 +8°C° 1.2 mm 4 m/S 724 mmHg 92%
    13:00 +7°C° 1.2 mm 5 m/S 725 mmHg 92%
    14:00 +7°C° 1.2 mm 5 m/S 725 mmHg 92%
    15:00 +6°C° 0.8 mm 7 m/S 726 mmHg 90%
    16:00 +5°C° 0.8 mm 8 m/S 727 mmHg 89%
    17:00 +5°C° 0.8 mm 9 m/S 728 mmHg 88%
    18:00 +5°C° 0.4 mm 9 m/S 729 mmHg 87%
    19:00 +3°C° 0.4 mm 9 m/S 730 mmHg 86%
    20:00 +3°C° 0.4 mm 10 m/S 730 mmHg 85%
    21:00 +3°C° 0.1 mm 9 m/S 731 mmHg 84%
    22:00 +2°C° 0.1 mm 9 m/S 732 mmHg 82%
    23:00 +2°C° 0.1 mm 8 m/S 733 mmHg 81%

    26 September, Mittwoch

    Zeit Temperatur Niederschläge Wind Luftdruck Luftfeuchtigkeit
    00:00 +2°C° 0.1 mm 8 m/S 733 mmHg 81%
    01:00 +2°C° 0.1 mm 8 m/S 734 mmHg 80%
    02:00 +1°C° 0.1 mm 8 m/S 735 mmHg 80%
    03:00 +2°C° 0 mm 7 m/S 735 mmHg 79%
    04:00 +2°C° 0 mm 7 m/S 736 mmHg 79%
    05:00 0°C° 0 mm 7 m/S 736 mmHg 78%
    06:00 +2°C° 0 mm 7 m/S 737 mmHg 76%
    07:00 +2°C° 0 mm 7 m/S 737 mmHg 74%
    08:00 +2°C° 0 mm 7 m/S 738 mmHg 72%
    09:00 +3°C° 0 mm 7 m/S 739 mmHg 70%
    10:00 +4°C° 0 mm 7 m/S 739 mmHg 68%
    11:00 +5°C° 0 mm 7 m/S 740 mmHg 66%
    12:00 +5°C° 0.1 mm 6 m/S 741 mmHg 66%
    13:00 +5°C° 0.1 mm 6 m/S 741 mmHg 66%
    14:00 +5°C° 0.1 mm 6 m/S 742 mmHg 65%
    15:00 +6°C° 0 mm 5 m/S 743 mmHg 66%
    16:00 +6°C° 0 mm 5 m/S 743 mmHg 67%
    17:00 +6°C° 0 mm 4 m/S 744 mmHg 68%
    18:00 +5°C° 0 mm 4 m/S 744 mmHg 71%
    19:00 +4°C° 0 mm 4 m/S 745 mmHg 73%
    20:00 +4°C° 0 mm 4 m/S 746 mmHg 75%
    21:00 +3°C° 0 mm 4 m/S 746 mmHg 77%
    22:00 +3°C° 0 mm 3 m/S 747 mmHg 79%
    23:00 +3°C° 0 mm 3 m/S 747 mmHg 81%
    Mehr zeigen